Time,TemperatureF,DewpointF,PressureIn,WindDirection,WindDirectionDegrees,WindSpeedMPH,WindSpeedGustMPH,Humidity,HourlyPrecipIn,Conditions,Clouds,dailyrainin,SoftwareType,DateUTC
2013-09-20 00:01:00,65.4,58.0,28.91,NW,315,9.1,9.1,77,0.00,,,0.00,Rainwise IP-100,2013-09-20 05:01:00,
2013-09-20 00:06:00,65.3,57.0,28.91,NW,315,4.7,9.0,77,0.00,,,0.00,Rainwise IP-100,2013-09-20 05:06:00,
2013-09-20 00:11:00,65.2,57.0,28.91,NNW,337,7.5,7.5,76,0.00,,,0.00,Rainwise IP-100,2013-09-20 05:11:00,
2013-09-20 00:16:00,65.0,57.0,28.91,NNW,337,8.9,10.0,75,0.00,,,0.00,Rainwise IP-100,2013-09-20 05:16:00,
2013-09-20 00:21:00,64.8,56.0,28.91,WNW,292,4.9,9.0,75,0.00,,,0.00,Rainwise IP-100,2013-09-20 05:21:00,
2013-09-20 00:26:00,64.6,56.0,28.91,WNW,292,10.0,12.0,74,0.00,,,0.00,Rainwise IP-100,2013-09-20 05:26:00,
2013-09-20 00:31:00,64.5,56.0,28.92,WNW,292,5.8,10.0,73,0.00,,,0.00,Rainwise IP-100,2013-09-20 05:31:00,
2013-09-20 00:36:00,64.3,55.0,28.92,WSW,247,7.5,7.5,73,0.00,,,0.00,Rainwise IP-100,2013-09-20 05:36:00,
2013-09-20 00:41:00,64.2,55.0,28.92,WSW,247,5.1,7.0,73,0.00,,,0.00,Rainwise IP-100,2013-09-20 05:41:00,
2013-09-20 00:46:00,64.0,55.0,28.92,WSW,247,9.8,10.0,73,0.00,,,0.00,Rainwise IP-100,2013-09-20 05:46:00,
2013-09-20 00:51:00,63.8,54.0,28.92,West,270,3.3,9.0,73,0.00,,,0.00,Rainwise IP-100,2013-09-20 05:51:00,
2013-09-20 00:56:00,63.6,54.0,28.93,WNW,292,7.5,12.0,73,0.00,,,0.00,Rainwise IP-100,2013-09-20 05:56:00,
2013-09-20 01:01:00,63.5,54.0,28.93,West,270,7.9,8.0,73,0.00,,,0.00,Rainwise IP-100,2013-09-20 06:01:00,
2013-09-20 01:06:00,63.4,54.0,28.93,SSE,157,1.9,10.0,73,0.00,,,0.00,Rainwise IP-100,2013-09-20 06:06:00,
2013-09-20 01:11:00,63.1,54.0,28.93,West,270,6.8,17.0,73,0.00,,,0.00,Rainwise IP-100,2013-09-20 06:11:00,
2013-09-20 01:16:00,62.9,54.0,28.93,WNW,292,3.5,14.0,73,0.00,,,0.00,Rainwise IP-100,2013-09-20 06:16:00,
2013-09-20 01:21:00,62.7,54.0,28.93,NNW,337,2.3,12.0,74,0.00,,,0.00,Rainwise IP-100,2013-09-20 06:21:00,
2013-09-20 01:26:00,62.6,54.0,28.93,WSW,247,5.1,10.0,74,0.00,,,0.00,Rainwise IP-100,2013-09-20 06:26:00,
2013-09-20 01:31:00,62.4,54.0,28.93,WSW,247,5.8,11.0,75,0.00,,,0.00,Rainwise IP-100,2013-09-20 06:31:00,
2013-09-20 01:36:00,62.1,54.0,28.93,WNW,292,4.4,10.0,75,0.00,,,0.00,Rainwise IP-100,2013-09-20 06:36:00,
2013-09-20 01:41:00,61.9,54.0,28.93,WSW,247,4.2,8.0,75,0.00,,,0.00,Rainwise IP-100,2013-09-20 06:41:00,
2013-09-20 01:46:00,61.7,54.0,28.93,WNW,292,6.8,11.0,76,0.00,,,0.00,Rainwise IP-100,2013-09-20 06:46:00,
2013-09-20 01:51:00,61.5,54.0,28.92,WNW,292,7.5,11.0,76,0.00,,,0.00,Rainwise IP-100,2013-09-20 06:51:00,
2013-09-20 01:56:00,61.4,54.0,28.93,West,270,5.8,12.0,77,0.00,,,0.00,Rainwise IP-100,2013-09-20 06:56:00,
2013-09-20 02:01:00,61.2,54.0,28.92,NW,315,10.7,10.7,77,0.00,,,0.00,Rainwise IP-100,2013-09-20 07:01:00,
2013-09-20 02:06:00,61.1,54.0,28.93,WNW,292,6.8,10.0,77,0.00,,,0.00,Rainwise IP-100,2013-09-20 07:06:00,
2013-09-20 02:11:00,61.0,54.0,28.92,West,270,2.6,12.0,77,0.00,,,0.00,Rainwise IP-100,2013-09-20 07:11:00,
2013-09-20 02:16:00,60.8,53.0,28.93,WSW,247,5.8,13.0,78,0.00,,,0.00,Rainwise IP-100,2013-09-20 07:16:00,
2013-09-20 02:21:00,60.7,53.0,28.93,WSW,247,5.4,11.0,78,0.00,,,0.00,Rainwise IP-100,2013-09-20 07:21:00,
2013-09-20 02:26:00,60.6,53.0,28.92,NW,315,8.6,12.0,78,0.00,,,0.00,Rainwise IP-100,2013-09-20 07:26:00,
2013-09-20 02:31:00,60.4,53.0,28.93,WNW,292,4.9,11.0,78,0.00,,,0.00,Rainwise IP-100,2013-09-20 07:31:00,
2013-09-20 02:36:00,60.4,54.0,28.94,NNW,337,12.1,12.1,79,0.00,,,0.00,Rainwise IP-100,2013-09-20 07:36:00,
2013-09-20 02:41:00,60.4,54.0,28.94,WSW,247,7.0,12.0,79,0.00,,,0.00,Rainwise IP-100,2013-09-20 07:41:00,
2013-09-20 02:46:00,60.3,53.0,28.94,SSW,202,5.1,10.0,79,0.00,,,0.00,Rainwise IP-100,2013-09-20 07:46:00,
2013-09-20 02:51:00,60.1,53.0,28.93,West,270,4.9,12.0,79,0.00,,,0.00,Rainwise IP-100,2013-09-20 07:51:00,
2013-09-20 02:56:00,60.0,53.0,28.94,SW,225,9.1,10.0,79,0.00,,,0.00,Rainwise IP-100,2013-09-20 07:56:00,
2013-09-20 03:01:00,59.9,54.0,28.93,WNW,292,8.2,9.0,80,0.00,,,0.00,Rainwise IP-100,2013-09-20 08:01:00,
2013-09-20 03:06:00,59.9,54.0,28.93,WSW,247,12.1,14.0,80,0.00,,,0.00,Rainwise IP-100,2013-09-20 08:06:00,
2013-09-20 03:11:00,59.8,53.0,28.94,West,270,8.6,17.0,80,0.00,,,0.00,Rainwise IP-100,2013-09-20 08:11:00,
2013-09-20 03:16:00,59.7,53.0,28.94,WSW,247,9.8,18.0,80,0.00,,,0.00,Rainwise IP-100,2013-09-20 08:16:00,
2013-09-20 03:21:00,59.7,53.0,28.94,West,270,8.9,11.0,81,0.00,,,0.00,Rainwise IP-100,2013-09-20 08:21:00,
2013-09-20 03:26:00,59.6,53.0,28.94,WSW,247,5.1,11.0,81,0.00,,,0.00,Rainwise IP-100,2013-09-20 08:26:00,
2013-09-20 03:31:00,59.5,53.0,28.94,West,270,6.5,8.0,81,0.00,,,0.00,Rainwise IP-100,2013-09-20 08:31:00,
2013-09-20 03:36:00,59.5,53.0,28.94,WSW,247,8.4,10.0,81,0.00,,,0.00,Rainwise IP-100,2013-09-20 08:36:00,
2013-09-20 03:41:00,59.4,54.0,28.94,WNW,292,7.5,11.0,82,0.00,,,0.00,Rainwise IP-100,2013-09-20 08:41:00,
2013-09-20 03:46:00,59.2,53.0,28.94,West,270,8.4,14.0,82,0.00,,,0.00,Rainwise IP-100,2013-09-20 08:46:00,
2013-09-20 03:51:00,59.0,53.0,28.94,WNW,292,8.4,10.0,82,0.00,,,0.00,Rainwise IP-100,2013-09-20 08:51:00,
2013-09-20 03:56:00,59.0,53.0,28.94,NNW,337,4.0,9.0,82,0.00,,,0.00,Rainwise IP-100,2013-09-20 08:56:00,
2013-09-20 04:01:00,58.9,54.0,28.94,WSW,247,4.0,10.0,83,0.00,,,0.00,Rainwise IP-100,2013-09-20 09:01:00,
2013-09-20 04:06:00,58.9,54.0,28.95,West,270,4.4,10.0,83,0.00,,,0.00,Rainwise IP-100,2013-09-20 09:06:00,
2013-09-20 04:11:00,58.9,54.0,28.94,West,270,7.9,13.0,83,0.00,,,0.00,Rainwise IP-100,2013-09-20 09:11:00,
2013-09-20 04:16:00,58.7,54.0,28.94,WSW,247,7.9,13.0,83,0.00,,,0.00,Rainwise IP-100,2013-09-20 09:16:00,
2013-09-20 04:21:00,58.5,54.0,28.95,WSW,247,6.1,10.0,84,0.00,,,0.00,Rainwise IP-100,2013-09-20 09:21:00,
2013-09-20 04:26:00,58.4,53.0,28.95,WNW,292,6.1,12.0,84,0.00,,,0.00,Rainwise IP-100,2013-09-20 09:26:00,
2013-09-20 04:31:00,58.2,53.0,28.94,West,270,4.7,10.0,84,0.00,,,0.00,Rainwise IP-100,2013-09-20 09:31:00,
2013-09-20 04:36:00,58.1,53.0,28.94,NNW,337,2.3,10.0,84,0.00,,,0.00,Rainwise IP-100,2013-09-20 09:36:00,
2013-09-20 04:41:00,58.1,54.0,28.94,WSW,247,10.3,10.3,85,0.00,,,0.00,Rainwise IP-100,2013-09-20 09:41:00,
2013-09-20 04:46:00,57.9,54.0,28.94,SW,225,7.9,10.0,85,0.00,,,0.00,Rainwise IP-100,2013-09-20 09:46:00,
2013-09-20 04:51:00,57.8,53.0,28.94,West,270,9.3,13.0,85,0.00,,,0.00,Rainwise IP-100,2013-09-20 09:51:00,
2013-09-20 04:56:00,57.7,53.0,28.94,WSW,247,6.5,11.0,85,0.00,,,0.00,Rainwise IP-100,2013-09-20 09:56:00,
2013-09-20 05:01:00,57.6,53.0,28.95,WSW,247,6.1,11.0,85,0.00,,,0.00,Rainwise IP-100,2013-09-20 10:01:00,
2013-09-20 05:06:00,57.4,53.0,28.95,WSW,247,4.2,14.0,85,0.00,,,0.00,Rainwise IP-100,2013-09-20 10:06:00,
2013-09-20 05:11:00,57.3,53.0,28.95,SW,225,5.4,11.0,85,0.00,,,0.00,Rainwise IP-100,2013-09-20 10:11:00,
2013-09-20 05:16:00,57.3,53.0,28.95,West,270,6.1,10.0,85,0.00,,,0.00,Rainwise IP-100,2013-09-20 10:16:00,
2013-09-20 05:21:00,57.3,53.0,28.95,WSW,247,8.2,15.0,85,0.00,,,0.00,Rainwise IP-100,2013-09-20 10:21:00,
2013-09-20 05:26:00,57.3,53.0,28.95,WNW,292,6.5,9.0,86,0.00,,,0.00,Rainwise IP-100,2013-09-20 10:26:00,
2013-09-20 05:31:00,57.2,53.0,28.94,West,270,6.1,12.0,86,0.00,,,0.00,Rainwise IP-100,2013-09-20 10:31:00,
2013-09-20 05:37:00,57.1,53.0,28.94,WNW,292,5.6,13.0,86,0.00,,,0.00,Rainwise IP-100,2013-09-20 10:37:00,
2013-09-20 05:42:00,56.9,53.0,28.94,West,270,5.8,8.0,86,0.00,,,0.00,Rainwise IP-100,2013-09-20 10:42:00,
2013-09-20 05:47:00,57.0,53.0,28.94,WSW,247,5.4,9.0,86,0.00,,,0.00,Rainwise IP-100,2013-09-20 10:47:00,
2013-09-20 05:52:00,57.0,53.0,28.94,WNW,292,2.6,7.0,86,0.00,,,0.00,Rainwise IP-100,2013-09-20 10:52:00,
2013-09-20 05:57:00,56.9,53.0,28.94,NNW,337,8.9,10.0,86,0.00,,,0.00,Rainwise IP-100,2013-09-20 10:57:00,
2013-09-20 06:02:00,56.9,53.0,28.94,WNW,292,2.6,11.0,87,0.00,,,0.00,Rainwise IP-100,2013-09-20 11:02:00,
2013-09-20 06:07:00,56.8,53.0,28.94,West,270,7.0,7.0,87,0.00,,,0.00,Rainwise IP-100,2013-09-20 11:07:00,
2013-09-20 06:12:00,56.7,53.0,28.94,WSW,247,11.2,11.2,87,0.00,,,0.00,Rainwise IP-100,2013-09-20 11:12:00,
2013-09-20 06:17:00,56.5,53.0,28.94,West,270,6.5,14.0,87,0.00,,,0.00,Rainwise IP-100,2013-09-20 11:17:00,
2013-09-20 06:22:00,56.4,53.0,28.94,WSW,247,13.1,13.1,87,0.00,,,0.00,Rainwise IP-100,2013-09-20 11:22:00,
2013-09-20 06:27:00,56.4,53.0,28.94,WSW,247,8.2,13.0,87,0.00,,,0.00,Rainwise IP-100,2013-09-20 11:27:00,
2013-09-20 06:32:00,56.4,53.0,28.94,WSW,247,3.5,8.0,88,0.00,,,0.00,Rainwise IP-100,2013-09-20 11:32:00,
2013-09-20 06:37:00,56.4,53.0,28.95,WNW,292,5.4,9.0,88,0.00,,,0.00,Rainwise IP-100,2013-09-20 11:37:00,
2013-09-20 06:42:00,56.3,53.0,28.95,WSW,247,5.4,5.4,88,0.00,,,0.00,Rainwise IP-100,2013-09-20 11:42:00,
2013-09-20 06:47:00,56.2,53.0,28.95,WSW,247,2.1,10.0,88,0.00,,,0.00,Rainwise IP-100,2013-09-20 11:47:00,
2013-09-20 06:52:00,56.1,53.0,28.95,West,270,14.0,14.0,88,0.00,,,0.00,Rainwise IP-100,2013-09-20 11:52:00,
2013-09-20 06:57:00,56.1,53.0,28.95,WSW,247,4.7,14.0,88,0.00,,,0.00,Rainwise IP-100,2013-09-20 11:57:00,
2013-09-20 07:02:00,56.1,53.0,28.95,West,270,4.2,9.0,88,0.00,,,0.00,Rainwise IP-100,2013-09-20 12:02:00,
2013-09-20 07:07:00,56.2,53.0,28.95,WNW,292,4.0,6.0,88,0.00,,,0.00,Rainwise IP-100,2013-09-20 12:07:00,
2013-09-20 07:12:00,56.3,52.0,28.95,WSW,247,10.7,10.7,87,0.00,,,0.00,Rainwise IP-100,2013-09-20 12:12:00,
2013-09-20 07:17:00,56.4,53.0,28.95,NNW,337,1.2,12.0,87,0.00,,,0.00,Rainwise IP-100,2013-09-20 12:17:00,
2013-09-20 07:22:00,56.6,53.0,28.96,WSW,247,3.5,11.0,87,0.00,,,0.00,Rainwise IP-100,2013-09-20 12:22:00,
2013-09-20 07:27:00,56.7,53.0,28.96,WSW,247,10.7,11.0,86,0.00,,,0.00,Rainwise IP-100,2013-09-20 12:27:00,
2013-09-20 07:32:00,56.8,53.0,28.96,WSW,247,5.6,10.0,86,0.00,,,0.00,Rainwise IP-100,2013-09-20 12:32:00,
2013-09-20 07:37:00,56.8,53.0,28.96,WSW,247,11.2,11.2,86,0.00,,,0.00,Rainwise IP-100,2013-09-20 12:37:00,
2013-09-20 07:42:00,56.7,53.0,28.96,WSW,247,5.6,12.0,86,0.00,,,0.00,Rainwise IP-100,2013-09-20 12:42:00,
2013-09-20 07:47:00,56.7,53.0,28.96,WSW,247,3.5,8.0,86,0.00,,,0.00,Rainwise IP-100,2013-09-20 12:47:00,
2013-09-20 07:52:00,56.7,53.0,28.96,West,270,6.8,12.0,86,0.00,,,0.00,Rainwise IP-100,2013-09-20 12:52:00,
2013-09-20 07:57:00,56.8,53.0,28.96,West,270,4.9,8.0,86,0.00,,,0.00,Rainwise IP-100,2013-09-20 12:57:00,
2013-09-20 08:02:00,56.9,53.0,28.95,West,270,6.3,7.0,86,0.00,,,0.00,Rainwise IP-100,2013-09-20 13:02:00,
2013-09-20 08:07:00,57.1,53.0,28.96,WSW,247,11.2,11.2,86,0.00,,,0.00,Rainwise IP-100,2013-09-20 13:07:00,
2013-09-20 08:12:00,57.1,53.0,28.96,WNW,292,6.3,11.0,86,0.00,,,0.00,Rainwise IP-100,2013-09-20 13:12:00,
2013-09-20 08:17:00,57.2,53.0,28.96,WNW,292,3.3,6.0,86,0.00,,,0.00,Rainwise IP-100,2013-09-20 13:17:00,
2013-09-20 08:22:00,57.3,53.0,28.96,WNW,292,3.0,5.0,86,0.00,,,0.00,Rainwise IP-100,2013-09-20 13:22:00,
2013-09-20 08:27:00,57.3,53.0,28.96,West,270,12.6,12.6,85,0.00,,,0.00,Rainwise IP-100,2013-09-20 13:27:00,
2013-09-20 08:32:00,57.2,53.0,28.96,WNW,292,8.6,15.0,85,0.00,,,0.00,Rainwise IP-100,2013-09-20 13:32:00,
2013-09-20 08:37:00,57.3,53.0,28.96,WSW,247,2.3,9.0,85,0.00,,,0.00,Rainwise IP-100,2013-09-20 13:37:00,
2013-09-20 08:42:00,57.5,53.0,28.96,SW,225,6.1,9.0,85,0.00,,,0.00,Rainwise IP-100,2013-09-20 13:42:00,
2013-09-20 08:47:00,57.7,53.0,28.96,NW,315,3.3,11.0,85,0.00,,,0.00,Rainwise IP-100,2013-09-20 13:47:00,
2013-09-20 08:52:00,57.9,54.0,28.97,WNW,292,1.9,11.0,85,0.00,,,0.00,Rainwise IP-100,2013-09-20 13:52:00,
2013-09-20 08:57:00,58.0,53.0,28.96,WSW,247,5.1,7.0,84,0.00,,,0.00,Rainwise IP-100,2013-09-20 13:57:00,
2013-09-20 09:02:00,58.1,53.0,28.96,WSW,247,10.5,10.5,84,0.00,,,0.00,Rainwise IP-100,2013-09-20 14:02:00,
2013-09-20 09:07:00,57.9,54.0,28.96,WSW,247,6.5,11.0,85,0.00,,,0.00,Rainwise IP-100,2013-09-20 14:07:00,
2013-09-20 09:12:00,57.9,54.0,28.96,WSW,247,8.9,10.0,85,0.00,,,0.00,Rainwise IP-100,2013-09-20 14:12:00,
2013-09-20 09:17:00,58.0,54.0,28.96,WNW,292,3.0,8.0,85,0.00,,,0.00,Rainwise IP-100,2013-09-20 14:17:00,
2013-09-20 09:22:00,58.3,54.0,28.97,WSW,247,9.8,9.8,85,0.00,,,0.00,Rainwise IP-100,2013-09-20 14:22:00,
2013-09-20 09:27:00,58.4,54.0,28.97,SSW,202,5.1,9.0,85,0.00,,,0.00,Rainwise IP-100,2013-09-20 14:27:00,
2013-09-20 09:32:00,58.6,54.0,28.97,WNW,292,1.4,9.0,85,0.00,,,0.00,Rainwise IP-100,2013-09-20 14:32:00,
2013-09-20 09:37:00,58.7,54.0,28.97,WSW,247,2.6,7.0,85,0.00,,,0.00,Rainwise IP-100,2013-09-20 14:37:00,
2013-09-20 09:42:00,58.9,54.0,28.97,WSW,247,4.7,8.0,85,0.00,,,0.00,Rainwise IP-100,2013-09-20 14:42:00,
2013-09-20 09:47:00,58.9,54.0,28.97,WNW,292,3.0,4.0,85,0.00,,,0.00,Rainwise IP-100,2013-09-20 14:47:00,
2013-09-20 09:52:00,58.9,54.0,28.97,WNW,292,3.7,3.7,85,0.00,,,0.00,Rainwise IP-100,2013-09-20 14:52:00,
2013-09-20 09:57:00,59.3,54.0,28.97,West,270,6.3,6.3,85,0.00,,,0.00,Rainwise IP-100,2013-09-20 14:57:00,
2013-09-20 10:02:00,59.3,54.0,28.97,West,270,5.1,6.0,85,0.00,,,0.00,Rainwise IP-100,2013-09-20 15:02:00,
2013-09-20 10:48:00,59.9,54.0,28.98,West,270,4.2,0.0,81,0.00,,,0.00,Rainwise IP-100,2013-09-20 15:48:00,
2013-09-20 10:53:00,59.9,54.0,28.98,WSW,247,3.5,4.0,81,0.00,,,0.00,Rainwise IP-100,2013-09-20 15:53:00,
2013-09-20 10:58:00,59.9,54.0,28.98,WSW,247,3.5,3.5,81,0.00,,,0.00,Rainwise IP-100,2013-09-20 15:58:00,
2013-09-20 11:03:00,59.9,54.0,28.98,West,270,13.1,14.0,81,0.00,,,0.00,Rainwise IP-100,2013-09-20 16:03:00,
2013-09-20 11:08:00,60.0,54.0,28.98,WNW,292,8.6,13.0,81,0.00,,,0.00,Rainwise IP-100,2013-09-20 16:08:00,
2013-09-20 11:13:00,59.7,53.0,28.98,WSW,247,7.5,8.0,81,0.00,,,0.00,Rainwise IP-100,2013-09-20 16:13:00,
2013-09-20 11:18:00,58.9,53.0,28.99,West,270,10.7,10.7,82,0.00,,,0.00,Rainwise IP-100,2013-09-20 16:18:00,
2013-09-20 11:23:00,58.0,53.0,28.99,WNW,292,9.1,10.0,84,0.00,,,0.00,Rainwise IP-100,2013-09-20 16:23:00,
2013-09-20 11:28:00,58.1,53.0,28.99,WNW,292,8.6,9.0,84,0.00,,,0.00,Rainwise IP-100,2013-09-20 16:28:00,
2013-09-20 11:33:00,58.3,53.0,28.99,WSW,247,7.2,10.0,84,0.00,,,0.00,Rainwise IP-100,2013-09-20 16:33:00,
2013-09-20 11:38:00,58.4,53.0,28.99,WSW,247,1.6,7.0,84,0.00,,,0.00,Rainwise IP-100,2013-09-20 16:38:00,
2013-09-20 11:43:00,58.5,54.0,28.99,WSW,247,8.6,8.6,84,0.00,,,0.00,Rainwise IP-100,2013-09-20 16:43:00,
2013-09-20 11:48:00,58.5,54.0,28.99,WSW,247,8.6,8.6,84,0.00,,,0.00,Rainwise IP-100,2013-09-20 16:48:00,
2013-09-20 11:53:00,57.6,53.0,28.99,WSW,247,7.2,13.0,86,0.00,,,0.00,Rainwise IP-100,2013-09-20 16:53:00,
2013-09-20 11:58:00,57.2,53.0,29.00,NNW,337,4.7,7.0,88,0.00,,,0.00,Rainwise IP-100,2013-09-20 16:58:00,
2013-09-20 12:03:00,57.4,54.0,29.00,WNW,292,8.4,8.4,88,0.00,,,0.00,Rainwise IP-100,2013-09-20 17:03:00,
2013-09-20 12:08:00,57.7,54.0,28.99,WNW,292,4.0,8.0,88,0.00,,,0.00,Rainwise IP-100,2013-09-20 17:08:00,
2013-09-20 12:13:00,58.4,54.0,28.99,West,270,7.9,7.9,85,0.00,,,0.00,Rainwise IP-100,2013-09-20 17:13:00,
2013-09-20 12:18:00,58.4,54.0,28.99,West,270,7.9,7.9,85,0.00,,,0.00,Rainwise IP-100,2013-09-20 17:18:00,
2013-09-20 12:34:00,59.2,53.0,28.99,WSW,247,7.5,0.0,80,0.00,,,0.00,Rainwise IP-100,2013-09-20 17:34:00,
2013-09-20 12:40:00,59.2,53.0,28.99,WSW,247,7.5,7.5,80,0.00,,,0.00,Rainwise IP-100,2013-09-20 17:40:00,
2013-09-20 12:58:00,60.4,52.0,29.00,SSW,202,4.0,0.0,74,0.00,,,0.00,Rainwise IP-100,2013-09-20 17:58:00,
2013-09-20 13:03:00,60.4,52.0,29.00,SSW,202,4.0,4.0,74,0.00,,,0.00,Rainwise IP-100,2013-09-20 18:03:00,
2013-09-20 13:08:00,60.5,52.0,28.99,NNW,337,9.8,11.0,73,0.00,,,0.00,Rainwise IP-100,2013-09-20 18:08:00,
2013-09-20 13:13:00,60.5,52.0,28.99,NNW,337,9.8,9.8,73,0.00,,,0.00,Rainwise IP-100,2013-09-20 18:13:00,
2013-09-20 13:27:00,60.5,52.0,28.99,NNW,337,9.8,9.8,73,0.00,,,0.00,Rainwise IP-100,2013-09-20 18:27:00,
2013-09-20 13:32:00,60.5,51.0,28.99,WSW,247,10.5,10.5,72,0.00,,,0.00,Rainwise IP-100,2013-09-20 18:32:00,
2013-09-20 13:37:00,60.8,51.0,28.99,WNW,292,5.6,10.0,71,0.00,,,0.00,Rainwise IP-100,2013-09-20 18:37:00,
2013-09-20 13:42:00,61.1,51.0,28.99,WSW,247,5.4,5.4,71,0.00,,,0.00,Rainwise IP-100,2013-09-20 18:42:00,
2013-09-20 13:47:00,61.7,52.0,28.99,NNW,337,5.4,5.4,70,0.00,,,0.00,Rainwise IP-100,2013-09-20 18:47:00,
2013-09-20 13:52:00,62.0,51.0,28.98,NNW,337,6.8,6.8,68,0.00,,,0.00,Rainwise IP-100,2013-09-20 18:52:00,
2013-09-20 13:57:00,62.1,51.0,28.99,NW,315,17.0,17.0,68,0.00,,,0.00,Rainwise IP-100,2013-09-20 18:57:00,
2013-09-20 14:02:00,62.1,51.0,28.99,NW,315,17.0,17.0,68,0.00,,,0.00,Rainwise IP-100,2013-09-20 19:02:00,
2013-09-20 14:07:00,62.4,50.0,28.98,WSW,247,7.9,17.0,65,0.00,,,0.00,Rainwise IP-100,2013-09-20 19:07:00,
2013-09-20 14:12:00,62.4,50.0,28.98,WNW,292,11.0,11.0,65,0.00,,,0.00,Rainwise IP-100,2013-09-20 19:12:00,
2013-09-20 14:17:00,62.4,50.0,28.98,WNW,292,11.0,11.0,65,0.00,,,0.00,Rainwise IP-100,2013-09-20 19:17:00,
2013-09-20 14:36:00,62.6,50.0,28.99,WSW,247,11.4,0.0,63,0.00,,,0.00,Rainwise IP-100,2013-09-20 19:36:00,
2013-09-20 14:41:00,62.8,49.0,28.99,WNW,292,10.5,11.0,62,0.00,,,0.00,Rainwise IP-100,2013-09-20 19:41:00,
2013-09-20 14:46:00,62.8,49.0,28.99,WNW,292,10.5,10.5,62,0.00,,,0.00,Rainwise IP-100,2013-09-20 19:46:00,
2013-09-20 14:52:00,62.6,49.0,28.98,NNW,337,14.9,14.9,61,0.00,,,0.00,Rainwise IP-100,2013-09-20 19:52:00,
2013-09-20 14:57:00,62.6,49.0,28.98,NNW,337,14.9,14.9,61,0.00,,,0.00,Rainwise IP-100,2013-09-20 19:57:00,
2013-09-20 15:02:00,62.7,49.0,28.99,WSW,247,3.5,14.0,61,0.00,,,0.00,Rainwise IP-100,2013-09-20 20:02:00,
2013-09-20 15:07:00,62.7,49.0,28.98,NNW,337,8.2,8.2,61,0.00,,,0.00,Rainwise IP-100,2013-09-20 20:07:00,
2013-09-20 15:12:00,62.8,48.0,28.98,WNW,292,8.4,9.0,60,0.00,,,0.00,Rainwise IP-100,2013-09-20 20:12:00,
2013-09-20 15:17:00,62.5,48.0,28.98,WNW,292,11.7,13.0,59,0.00,,,0.00,Rainwise IP-100,2013-09-20 20:17:00,
2013-09-20 15:22:00,62.5,48.0,28.98,WNW,292,11.7,11.7,59,0.00,,,0.00,Rainwise IP-100,2013-09-20 20:22:00,
2013-09-20 15:32:00,62.9,48.0,28.98,WNW,292,6.1,0.0,58,0.00,,,0.00,Rainwise IP-100,2013-09-20 20:32:00,
2013-09-20 15:37:00,62.9,48.0,28.98,WNW,292,6.1,6.1,58,0.00,,,0.00,Rainwise IP-100,2013-09-20 20:37:00,
2013-09-20 15:42:00,62.9,48.0,28.98,West,270,7.9,12.0,58,0.00,,,0.00,Rainwise IP-100,2013-09-20 20:42:00,
2013-09-20 15:47:00,63.0,47.0,28.98,WNW,292,7.0,9.0,57,0.00,,,0.00,Rainwise IP-100,2013-09-20 20:47:00,
2013-09-20 15:52:00,63.1,47.0,28.98,WNW,292,2.8,8.0,57,0.00,,,0.00,Rainwise IP-100,2013-09-20 20:52:00,
2013-09-20 15:57:00,63.1,47.0,28.98,WNW,292,2.8,2.8,57,0.00,,,0.00,Rainwise IP-100,2013-09-20 20:57:00,
2013-09-20 16:02:00,62.7,46.0,28.98,NW,315,5.4,9.0,55,0.00,,,0.00,Rainwise IP-100,2013-09-20 21:02:00,
2013-09-20 16:07:00,62.8,47.0,28.99,WNW,292,7.9,10.0,56,0.00,,,0.00,Rainwise IP-100,2013-09-20 21:07:00,
2013-09-20 16:12:00,62.9,47.0,28.99,WSW,247,9.8,9.8,56,0.00,,,0.00,Rainwise IP-100,2013-09-20 21:12:00,
2013-09-20 16:17:00,62.9,47.0,28.99,WSW,247,9.8,9.8,56,0.00,,,0.00,Rainwise IP-100,2013-09-20 21:17:00,
2013-09-20 16:24:00,62.6,47.0,28.98,WNW,292,3.7,0.0,58,0.00,,,0.00,Rainwise IP-100,2013-09-20 21:24:00,
2013-09-20 16:29:00,62.6,47.0,28.98,WNW,292,3.7,3.7,58,0.00,,,0.00,Rainwise IP-100,2013-09-20 21:29:00,
2013-09-20 16:34:00,62.4,48.0,28.98,WNW,292,8.4,8.4,59,0.00,,,0.00,Rainwise IP-100,2013-09-20 21:34:00,
2013-09-20 16:39:00,62.5,48.0,28.99,WNW,292,13.5,13.5,59,0.00,,,0.00,Rainwise IP-100,2013-09-20 21:39:00,
2013-09-20 16:44:00,62.4,48.0,28.99,WSW,247,3.5,13.0,59,0.00,,,0.00,Rainwise IP-100,2013-09-20 21:44:00,
2013-09-20 16:49:00,62.3,47.0,28.98,West,270,9.6,9.6,59,0.00,,,0.00,Rainwise IP-100,2013-09-20 21:49:00,
2013-09-20 16:55:00,62.2,47.0,28.98,WNW,292,9.8,9.8,59,0.00,,,0.00,Rainwise IP-100,2013-09-20 21:55:00,
2013-09-20 17:00:00,62.0,47.0,28.99,WSW,247,7.5,9.0,59,0.00,,,0.00,Rainwise IP-100,2013-09-20 22:00:00,
2013-09-20 17:05:00,61.8,47.0,28.99,West,270,12.8,12.8,59,0.00,,,0.00,Rainwise IP-100,2013-09-20 22:05:00,
2013-09-20 17:10:00,61.7,47.0,28.99,WNW,292,9.3,12.0,59,0.00,,,0.00,Rainwise IP-100,2013-09-20 22:10:00,
2013-09-20 17:15:00,61.7,47.0,28.98,WNW,292,5.8,9.0,58,0.00,,,0.00,Rainwise IP-100,2013-09-20 22:15:00,
2013-09-20 17:20:00,61.9,47.0,28.99,West,270,2.6,13.0,57,0.00,,,0.00,Rainwise IP-100,2013-09-20 22:20:00,
2013-09-20 17:25:00,62.0,47.0,28.99,WNW,292,8.4,15.0,57,0.00,,,0.00,Rainwise IP-100,2013-09-20 22:25:00,
2013-09-20 17:30:00,61.7,47.0,28.98,West,270,11.0,11.0,58,0.00,,,0.00,Rainwise IP-100,2013-09-20 22:30:00,
2013-09-20 17:35:00,61.7,47.0,28.99,WNW,292,5.6,11.0,58,0.00,,,0.00,Rainwise IP-100,2013-09-20 22:35:00,
2013-09-20 17:40:00,61.6,47.0,28.99,WSW,247,7.5,13.0,59,0.00,,,0.00,Rainwise IP-100,2013-09-20 22:40:00,
2013-09-20 17:45:00,61.4,47.0,28.98,NNW,337,6.1,12.0,60,0.00,,,0.00,Rainwise IP-100,2013-09-20 22:45:00,
2013-09-20 17:50:00,61.3,47.0,28.99,NW,315,7.2,9.0,61,0.00,,,0.00,Rainwise IP-100,2013-09-20 22:50:00,
2013-09-20 17:55:00,60.1,48.0,29.00,NW,315,9.1,15.0,65,0.06,,,0.01,Rainwise IP-100,2013-09-20 22:55:00,
2013-09-20 18:00:00,58.1,49.0,29.00,West,270,13.5,20.0,72,0.12,,,0.02,Rainwise IP-100,2013-09-20 23:00:00,
2013-09-20 18:05:00,55.8,50.0,29.01,NNW,337,5.1,13.0,81,0.06,,,0.02,Rainwise IP-100,2013-09-20 23:05:00,
2013-09-20 18:10:00,55.4,50.0,29.01,NNW,337,11.0,13.0,84,0.06,,,0.03,Rainwise IP-100,2013-09-20 23:10:00,
2013-09-20 18:15:00,55.2,50.0,29.00,WSW,247,10.3,11.0,85,0.06,,,0.03,Rainwise IP-100,2013-09-20 23:15:00,
2013-09-20 18:20:00,55.2,50.0,29.01,WNW,292,7.7,10.0,85,0.00,,,0.03,Rainwise IP-100,2013-09-20 23:20:00,
2013-09-20 18:25:00,55.2,50.0,29.01,WNW,292,7.7,7.7,85,0.00,,,0.03,Rainwise IP-100,2013-09-20 23:25:00,
2013-09-20 18:30:00,55.5,51.0,29.01,NW,315,9.3,9.3,85,0.00,,,0.03,Rainwise IP-100,2013-09-20 23:30:00,
2013-09-20 18:35:00,55.7,51.0,29.01,NW,315,13.1,13.1,85,0.00,,,0.03,Rainwise IP-100,2013-09-20 23:35:00,
2013-09-20 18:40:00,55.8,51.0,29.01,NNW,337,5.1,13.0,84,0.00,,,0.03,Rainwise IP-100,2013-09-20 23:40:00,
2013-09-20 18:45:00,55.9,51.0,29.01,WSW,247,6.5,15.0,84,0.00,,,0.03,Rainwise IP-100,2013-09-20 23:45:00,
2013-09-20 18:50:00,55.8,51.0,29.01,West,270,6.3,6.3,84,0.00,,,0.03,Rainwise IP-100,2013-09-20 23:50:00,
2013-09-20 18:55:00,55.6,51.0,29.02,South,180,4.0,9.0,85,0.00,,,0.03,Rainwise IP-100,2013-09-20 23:55:00,
2013-09-20 19:00:00,55.4,51.0,29.02,WSW,247,2.6,4.0,86,0.00,,,0.03,Rainwise IP-100,2013-09-21 00:00:00,
2013-09-20 19:05:00,55.2,51.0,29.01,WSW,247,5.8,5.8,87,0.00,,,0.03,Rainwise IP-100,2013-09-21 00:05:00,
2013-09-20 19:10:00,54.9,52.0,29.01,NW,315,13.1,13.1,89,0.00,,,0.03,Rainwise IP-100,2013-09-21 00:10:00,
2013-09-20 19:15:00,54.9,52.0,29.01,NW,315,2.6,13.0,89,0.00,,,0.03,Rainwise IP-100,2013-09-21 00:15:00,
2013-09-20 19:25:00,54.9,52.0,29.01,NW,315,2.6,2.6,89,0.00,,,0.03,Rainwise IP-100,2013-09-21 00:25:00,
2013-09-20 19:30:00,55.0,51.0,29.02,WSW,247,5.1,10.0,87,0.00,,,0.03,Rainwise IP-100,2013-09-21 00:30:00,
2013-09-20 19:35:00,54.9,51.0,29.02,WSW,247,5.4,5.4,87,0.00,,,0.03,Rainwise IP-100,2013-09-21 00:35:00,
2013-09-20 19:40:00,54.9,51.0,29.02,WSW,247,4.0,5.0,86,0.00,,,0.03,Rainwise IP-100,2013-09-21 00:40:00,
2013-09-20 19:45:00,54.9,51.0,29.02,WSW,247,7.2,9.0,86,0.00,,,0.03,Rainwise IP-100,2013-09-21 00:45:00,
2013-09-20 19:50:00,54.9,51.0,29.03,NNW,337,7.7,7.7,86,0.00,,,0.03,Rainwise IP-100,2013-09-21 00:50:00,
2013-09-20 19:55:00,54.6,50.0,29.03,WSW,247,4.2,7.0,87,0.00,,,0.03,Rainwise IP-100,2013-09-21 00:55:00,
2013-09-20 20:00:00,54.6,50.0,29.02,WNW,292,4.4,6.0,87,0.00,,,0.03,Rainwise IP-100,2013-09-21 01:00:00,
2013-09-20 20:05:00,54.6,51.0,29.02,West,270,5.4,7.0,88,0.00,,,0.03,Rainwise IP-100,2013-09-21 01:05:00,
2013-09-20 20:10:00,54.6,51.0,29.03,NNW,337,5.1,10.0,88,0.00,,,0.03,Rainwise IP-100,2013-09-21 01:10:00,
2013-09-20 20:15:00,54.5,50.0,29.03,WSW,247,3.0,9.0,87,0.00,,,0.03,Rainwise IP-100,2013-09-21 01:15:00,
2013-09-20 20:20:00,54.4,50.0,29.03,West,270,5.6,9.0,87,0.00,,,0.03,Rainwise IP-100,2013-09-21 01:20:00,
2013-09-20 20:25:00,54.3,50.0,29.04,WSW,247,5.8,10.0,88,0.00,,,0.03,Rainwise IP-100,2013-09-21 01:25:00,
2013-09-20 20:30:00,54.1,50.0,29.03,WSW,247,8.4,9.0,88,0.00,,,0.03,Rainwise IP-100,2013-09-21 01:30:00,
2013-09-20 20:35:00,54.1,50.0,29.03,NNW,337,7.0,11.0,88,0.00,,,0.03,Rainwise IP-100,2013-09-21 01:35:00,
2013-09-20 20:40:00,54.0,50.0,29.03,WNW,292,4.9,11.0,88,0.00,,,0.03,Rainwise IP-100,2013-09-21 01:40:00,
2013-09-20 20:45:00,54.0,50.0,29.04,WNW,292,5.8,7.0,88,0.00,,,0.03,Rainwise IP-100,2013-09-21 01:45:00,
2013-09-20 20:50:00,53.7,50.0,29.04,NNW,337,4.2,6.0,88,0.00,,,0.03,Rainwise IP-100,2013-09-21 01:50:00,
2013-09-20 20:55:00,53.7,50.0,29.04,WNW,292,2.6,4.0,88,0.00,,,0.03,Rainwise IP-100,2013-09-21 01:55:00,
2013-09-20 21:00:00,53.6,50.0,29.04,NNW,337,5.4,6.0,89,0.00,,,0.03,Rainwise IP-100,2013-09-21 02:00:00,
2013-09-20 21:05:00,53.6,50.0,29.04,NNW,337,4.2,6.0,89,0.00,,,0.03,Rainwise IP-100,2013-09-21 02:05:00,
2013-09-20 21:10:00,53.5,50.0,29.04,NW,315,4.4,6.0,89,0.00,,,0.03,Rainwise IP-100,2013-09-21 02:10:00,
2013-09-20 21:15:00,53.5,50.0,29.04,WSW,247,3.5,8.0,89,0.00,,,0.03,Rainwise IP-100,2013-09-21 02:15:00,
2013-09-20 21:20:00,53.5,50.0,29.04,NW,315,3.5,3.5,89,0.00,,,0.03,Rainwise IP-100,2013-09-21 02:20:00,
2013-09-20 21:25:00,53.4,50.0,29.05,West,270,4.7,4.7,89,0.00,,,0.03,Rainwise IP-100,2013-09-21 02:25:00,
2013-09-20 21:30:00,53.3,50.0,29.05,WNW,292,5.6,5.6,89,0.00,,,0.03,Rainwise IP-100,2013-09-21 02:30:00,
2013-09-20 21:35:00,53.3,50.0,29.05,NW,315,7.5,7.5,89,0.00,,,0.03,Rainwise IP-100,2013-09-21 02:35:00,
2013-09-20 21:40:00,53.3,50.0,29.05,West,270,1.9,7.0,89,0.00,,,0.03,Rainwise IP-100,2013-09-21 02:40:00,
2013-09-20 21:45:00,53.3,50.0,29.05,NNW,337,6.5,6.5,89,0.00,,,0.03,Rainwise IP-100,2013-09-21 02:45:00,
2013-09-20 21:50:00,53.3,49.0,29.05,WNW,292,2.3,6.0,88,0.00,,,0.03,Rainwise IP-100,2013-09-21 02:50:00,
2013-09-20 21:55:00,53.2,49.0,29.05,NNW,337,6.3,6.3,88,0.00,,,0.03,Rainwise IP-100,2013-09-21 02:55:00,
2013-09-20 22:00:00,53.2,49.0,29.05,NW,315,3.0,9.0,88,0.00,,,0.03,Rainwise IP-100,2013-09-21 03:00:00,
2013-09-20 22:05:00,53.2,49.0,29.05,NW,315,5.6,5.6,88,0.00,,,0.03,Rainwise IP-100,2013-09-21 03:05:00,
2013-09-20 22:10:00,53.1,49.0,29.04,WNW,292,6.1,6.1,88,0.00,,,0.03,Rainwise IP-100,2013-09-21 03:10:00,
2013-09-20 22:15:00,53.0,49.0,29.05,NW,315,9.1,10.0,88,0.00,,,0.03,Rainwise IP-100,2013-09-21 03:15:00,
2013-09-20 22:20:00,52.9,49.0,29.05,WNW,292,9.3,9.3,88,0.00,,,0.03,Rainwise IP-100,2013-09-21 03:20:00,
2013-09-20 22:25:00,52.7,49.0,29.05,West,270,4.9,9.0,88,0.00,,,0.03,Rainwise IP-100,2013-09-21 03:25:00,
2013-09-20 22:30:00,52.7,49.0,29.05,WSW,247,5.4,5.4,88,0.00,,,0.03,Rainwise IP-100,2013-09-21 03:30:00,
2013-09-20 22:35:00,52.6,50.0,29.05,WNW,292,4.7,7.0,89,0.00,,,0.03,Rainwise IP-100,2013-09-21 03:35:00,
2013-09-20 22:40:00,52.5,50.0,29.05,WNW,292,3.7,4.0,89,0.00,,,0.03,Rainwise IP-100,2013-09-21 03:40:00,
2013-09-20 22:45:00,52.5,50.0,29.05,NW,315,4.7,7.0,89,0.00,,,0.03,Rainwise IP-100,2013-09-21 03:45:00,
2013-09-20 22:50:00,52.4,49.0,29.05,WNW,292,6.8,9.0,89,0.00,,,0.03,Rainwise IP-100,2013-09-21 03:50:00,
2013-09-20 22:55:00,52.3,49.0,29.05,WNW,292,8.4,9.0,89,0.00,,,0.03,Rainwise IP-100,2013-09-21 03:55:00,
2013-09-20 23:00:00,52.4,48.0,29.05,WSW,247,2.8,8.0,88,0.00,,,0.03,Rainwise IP-100,2013-09-21 04:00:00,
2013-09-20 23:01:00,52.4,48.0,29.05,NNW,337,6.5,8.0,88,0.00,,,0.03,Rainwise IP-100,2013-09-21 04:01:00,
2013-09-20 23:02:00,52.3,48.0,29.05,WNW,292,5.1,7.0,88,0.00,,,0.03,Rainwise IP-100,2013-09-21 04:02:00,
2013-09-20 23:07:00,52.2,48.0,29.05,WNW,292,2.3,8.0,88,0.00,,,0.03,Rainwise IP-100,2013-09-21 04:07:00,
2013-09-20 23:12:00,52.2,48.0,29.05,WNW,292,7.0,7.0,88,0.00,,,0.03,Rainwise IP-100,2013-09-21 04:12:00,
2013-09-20 23:17:00,52.1,48.0,29.05,WSW,247,6.5,7.0,88,0.00,,,0.03,Rainwise IP-100,2013-09-21 04:17:00,
2013-09-20 23:22:00,52.0,49.0,29.05,NNW,337,2.8,9.0,89,0.00,,,0.03,Rainwise IP-100,2013-09-21 04:22:00,
2013-09-20 23:27:00,52.0,49.0,29.05,WNW,292,6.5,7.0,89,0.00,,,0.03,Rainwise IP-100,2013-09-21 04:27:00,
2013-09-20 23:32:00,51.9,49.0,29.05,West,270,4.7,7.0,89,0.00,,,0.03,Rainwise IP-100,2013-09-21 04:32:00,
2013-09-20 23:37:00,51.9,48.0,29.05,WNW,292,1.9,7.0,88,0.00,,,0.03,Rainwise IP-100,2013-09-21 04:37:00,
2013-09-20 23:42:00,51.8,48.0,29.05,West,270,3.3,7.0,88,0.00,,,0.03,Rainwise IP-100,2013-09-21 04:42:00,
2013-09-20 23:47:00,51.8,48.0,29.05,WNW,292,8.4,8.4,88,0.00,,,0.03,Rainwise IP-100,2013-09-21 04:47:00,
2013-09-20 23:52:00,51.7,48.0,29.05,WSW,247,3.5,8.0,88,0.00,,,0.03,Rainwise IP-100,2013-09-21 04:52:00,
2013-09-20 23:57:00,51.7,49.0,29.05,WSW,247,2.8,6.0,89,0.00,,,0.03,Rainwise IP-100,2013-09-21 04:57:00,